Temp
21 21 21 20 20 20 20 20 20 20 20 20 19 18 18 18 18 18 18 18 18 18 18 18 18 18 17 17 18 18 17 17 17 18 17 17 17 17 17 17 17 17 17
21 21 21 21 20 20 20 20 20 20 20 20 20 20 18 18 18 18 18 18 18 18 18 17 17 17 17 17 17 17 18 18 18 18 18 18 17 17 17 17 17 17 17
21 21 21 21 21 20 21 20 20 20 20 20 20 19 17 18 18 18 18 18 18 18 17 17 17 17 17 17 17 18 18 18 18 17 17 17 17 17 17 16 17 17 17
21 21 21 21 20 21 20 20 21 21 20 19 19 18 18 18 18 18 18 18 18 17 17 17 16 16 18 18 18 18 18 18 18 17 17 17 17 17 17 17 17 17 17
21 21 21 21 20 20 21 21 21 20 20 19 19 18 18 18 18 19 18 18 18 18 18 18 17 17 18 18 18 18 18 18 18 18 18 18 17 17 17 17 17 17 17
21 21 21 21 20 20 20 20 20 20 19 19 18 17 17 18 19 18 18 18 17 18 18 18 18 18 18 18 18 18 18 18 18 18 18 18 17 17 17 17 17 16 17
21 21 20 20 20 20 20 20 20 20 19 18 17 17 17 17 17 17 17 17 18 18 18 18 18 18 18 19 19 19 18 18 18 18 18 18 17 17 17 16 17 16 16
21 21 20 20 20 20 20 20 19 19 19 18 17 17 17 17 17 18 18 18 18 18 18 18 18 18 18 19 19 19 18 18 18 18 18 17 16 16 16 15 15 15 15
21 21 21 20 20 20 20 19 19 19 19 19 18 17 17 16 16 17 17 18 18 18 18 18 18 18 18 19 18 18 18 18 18 18 18 17 16 16 15 15 15 15 14
21 21 21 20 21 21 20 20 19 19 19 19 19 19 19 18 16 16 17 17 17 17 17 18 18 18 18 19 19 18 18 18 18 18 18 17 16 16 15 15 14 14 14
20 21 20 20 21 20 20 19 19 19 19 19 19 19 19 19 18 18 17 17 17 16 17 17 18 18 18 18 18 18 18 18 18 18 17 17 16 15 15 14 14 14 13
20 20 20 20 20 20 20 19 19 19 19 19 19 18 18 19 19 18 18 18 17 16 17 17 17 18 18 18 18 18 18 18 18 18 17 17 16 15 14 14 13 13 13
20 20 20 20 20 20 20 20 19 19 19 18 18 18 18 18 18 18 18 18 17 17 17 17 17 17 18 18 18 18 18 18 18 17 17 17 16 15 14 14 13 13 13
20 20 20 20 20 20 20 20 20 19 19 18 18 18 18 18 18 18 18 18 18 18 18 18 18 17 18 18 18 18 18 18 18 17 17 17 16 15 14 14 13 13 13
21 21 20 20 20 20 20 21 20 20 20 19 19 19 18 18 18 18 18 18 18 18 18 18 18 18 17 18 18 18 18 18 18 17 17 16 16 16 14 14 13 13 13
22 22 21 21 21 20 20 21 21 21 20 20 20 20 19 19 18 18 18 18 18 18 19 19 18 18 18 18 18 18 18 18 18 18 17 16 16 16 15 14 13 13 13
23 23 22 22 21 21 21 21 21 21 21 20 20 20 20 20 19 19 19 19 19 19 19 19 18 18 18 18 18 18 18 18 18 18 17 16 16 15 15 14 14 13 13
22 22 23 23 22 22 21 21 21 20 20 20 20 20 20 20 20 20 19 19 19 19 19 19 19 18 18 18 18 18 18 18 18 18 17 16 16 15 15 14 14 13 13
24 22 22 23 22 22 22 21 21 21 21 20 20 20 20 21 21 20 20 20 20 19 19 19 19 18 18 18 17 18 18 18 18 18 17 16 16 15 15 15 14 13 13
22 23 22 21 22 22 22 21 21 21 21 21 20 20 21 21 20 20 21 21 20 20 19 19 19 18 18 18 18 18 18 18 17 17 17 17 16 15 15 15 14 13 13
21 21 22 21 21 20 20 19 19 20 21 21 21 21 21 21 21 20 19 20 20 20 20 19 19 18 18 17 16 16 17 17 17 17 17 17 16 15 15 14 14 14 13
19 19 19 19 20 20 20 19 19 19 19 20 21 21 20 21 21 21 20 20 19 19 19 19 18 18 17 16 15 13 13 15 16 17 16 16 16 16 15 14 14 14 13
18 18 18 19 19 18 18 19 19 19 19 19 20 20 20 20 19 19 19 19 19 18 18 18 18 18 16 15 15 15 10 11 11 15 16 16 15 15 15 14 13 13 13
16 16 17 17 17 17 17 17 17 17 17 18 18 18 19 18 18 18 18 18 19 18 18 18 18 17 16 15 13 14 14 13 10 11 13 14 14 14 14 14 13 13 13
16 16 16 16 16 16 16 16 16 16 16 16 16 17 17 18 18 18 18 18 18 19 18 18 17 16 16 14 14 14 14 12 11 10 11 11 12 14 13 13 13 13 12
15 15 15 15 15 15 15 15 15 15 15 16 16 16 16 16 17 17 17 18 18 18 18 18 17 17 16 15 14 13 13 12 12 8 8 8 9 12 13 13 12 12 12
Height
807 810 814 817 820 822 823 824 826 827 828 829 831 832 833 833 834 833 834 834 835 836 837 837 837 837 838 838 838 839 839 839 839 839 839 839 840 839 839 838 838 837 838
805 809 814 818 820 822 824 826 828 828 829 831 832 833 834 835 835 836 836 836 837 838 839 839 839 839 839 840 840 840 841 841 842 842 841 841 841 841 840 840 839 839 839
806 810 815 818 821 823 825 827 828 829 831 832 833 835 835 835 836 837 838 838 839 840 840 840 841 841 841 841 842 842 843 843 844 844 843 843 843 843 842 842 842 841 840
806 811 815 819 821 824 826 827 829 830 832 833 834 835 836 836 836 838 839 840 840 841 841 841 842 842 842 843 843 844 844 844 845 845 845 845 844 844 844 844 844 842 840
808 812 816 820 822 825 826 828 830 832 832 833 834 834 836 838 838 839 841 841 842 842 842 843 843 843 844 844 845 846 846 846 846 846 846 846 845 845 845 846 845 844 841
810 814 818 821 824 825 827 828 830 832 833 834 834 835 836 838 839 840 841 842 843 843 844 844 845 845 845 846 847 847 847 846 847 848 848 848 847 847 847 847 847 847 846
811 815 819 822 825 826 827 829 831 833 834 835 835 836 837 838 839 840 841 842 844 844 845 845 846 846 847 847 848 848 848 848 848 849 849 849 848 848 849 848 848 847 847
811 816 819 822 825 827 828 829 831 833 835 835 836 837 838 839 840 841 841 843 844 844 845 845 846 847 847 848 848 849 849 849 849 849 849 849 850 850 850 849 848 848 847
812 815 819 822 825 827 829 830 832 834 835 836 836 837 839 840 840 841 842 843 844 844 845 845 846 847 848 848 848 849 848 848 849 849 849 850 849 849 849 849 850 849 848
813 815 818 822 825 827 828 831 833 834 835 835 836 837 838 840 841 842 843 844 845 845 845 845 846 847 847 848 848 848 848 848 849 848 848 849 850 850 850 849 849 849 849
815 816 819 821 824 826 828 830 832 833 834 835 836 837 838 839 841 843 844 845 846 847 848 847 847 848 848 849 848 848 848 848 848 849 849 850 850 850 850 849 849 849 849
814 816 818 820 823 825 827 829 831 832 833 834 835 837 839 840 841 842 843 844 846 847 848 848 848 849 849 849 849 849 849 849 848 848 848 849 850 850 850 850 849 850 850
813 816 818 819 822 824 825 827 829 830 832 833 835 837 838 840 841 842 843 844 845 846 847 847 848 848 849 849 850 850 850 849 849 848 848 847 847 849 849 849 850 850 850
813 815 817 819 820 822 824 825 827 828 830 832 834 836 837 838 840 841 842 843 844 845 845 845 846 848 848 849 849 849 850 849 849 849 849 848 847 847 847 848 849 850 850
811 813 814 817 818 820 822 823 825 826 828 830 832 833 835 836 837 839 840 841 842 842 843 844 845 846 846 846 847 847 848 848 848 848 848 847 847 847 848 848 848 849 849
808 810 812 813 816 818 819 821 823 824 826 828 830 831 832 833 835 836 837 838 839 840 841 841 842 843 843 844 845 845 846 846 846 846 846 846 846 845 846 847 848 848 849
806 808 810 812 813 815 818 820 821 823 824 826 827 828 830 831 831 832 833 834 835 837 838 839 839 840 840 841 841 842 842 843 842 842 842 843 842 843 843 845 845 846 848
804 806 808 810 811 813 814 817 818 820 821 823 824 825 826 827 829 829 829 829 832 834 835 835 835 836 836 836 837 837 838 839 839 839 840 841 841 841 842 842 843 844 846
800 802 804 806 808 810 813 814 816 818 818 820 820 821 823 824 825 826 826 826 828 829 830 831 831 832 832 832 833 834 834 835 835 836 835 836 836 837 837 839 841 841 842
799 800 801 803 805 807 810 812 813 814 815 816 817 818 819 820 821 822 822 823 824 825 826 826 827 828 828 828 830 830 830 830 830 830 830 831 832 833 833 834 836 837 839
797 798 799 802 803 804 806 808 809 809 810 811 812 814 815 815 816 817 818 819 819 821 821 822 823 824 824 825 826 826 825 826 826 825 826 826 826 827 828 829 831 833 835
797 798 799 801 801 802 803 804 805 806 807 807 807 808 809 810 811 813 814 814 815 816 816 817 817 818 819 820 822 824 824 821 818 817 818 819 819 821 823 825 826 828 830
797 798 798 798 799 801 802 802 803 804 804 804 804 804 804 805 806 807 808 809 810 810 810 811 812 812 812 813 816 820 826 821 814 809 808 810 811 812 814 817 820 823 826
797 797 798 798 798 799 799 798 799 800 800 801 801 801 801 800 800 801 802 803 804 804 804 804 806 806 808 808 810 813 812 812 814 811 805 804 807 807 809 811 813 816 820
796 796 797 797 797 797 797 797 796 797 797 797 797 797 796 796 796 796 796 797 797 798 799 799 800 800 801 803 803 804 805 807 808 808 806 802 804 801 801 805 808 809 812
796 795 796 796 797 797 796 796 796 796 796 795 794 793 792 792 792 791 790 790 791 793 793 794 795 795 795 796 798 800 800 800 801 803 804 800 801 800 800 800 801 802 804
Wind_Speed
25 24 24 20 19 18 17 17 16 15 14 13 11 11 9 9 8 8 10 11 13 16 16 15 14 13 13 13 14 15 16 17 17 16 15 14 13 14 11 12 15 15 11
30 27 25 22 20 18 17 18 17 16 15 12 10 7 9 8 10 10 13 12 18 16 15 14 13 12 12 12 14 16 17 19 17 16 15 14 12 12 12 11 11 11 10
30 27 25 22 21 20 19 18 18 17 13 9 5 8 9 9 11 12 13 12 16 16 15 13 12 12 12 13 15 16 15 12 12 15 15 12 10 9 10 11 9 7 6
31 28 25 23 22 20 20 21 18 13 12 9 8 9 10 11 11 14 13 13 17 15 13 12 12 12 13 15 16 15 14 11 9 11 12 11 12 8 10 11 10 6 3
30 28 25 23 21 20 21 19 16 13 12 9 10 12 15 14 16 15 14 14 14 13 11 11 13 13 15 16 15 13 11 10 12 12 11 9 14 12 9 10 10 17 16
30 27 24 22 20 20 21 20 16 13 10 10 13 15 17 16 16 18 17 15 14 11 9 11 13 13 14 15 14 12 10 9 12 11 9 10 13 13 16 14 13 13 16
29 25 22 19 19 20 20 18 14 12 11 10 13 15 16 16 15 15 16 14 12 10 9 11 12 12 13 14 14 11 10 11 10 8 6 8 10 10 8 7 7 8 10
28 25 21 20 19 19 19 16 15 13 10 9 13 13 14 14 14 14 14 13 11 9 10 11 11 11 11 12 13 12 7 8 9 7 6 9 10 8 8 7 6 7 6
27 25 23 21 19 19 18 17 17 14 9 8 11 14 14 11 12 13 13 12 11 10 11 11 11 10 10 11 12 11 6 10 8 6 7 11 10 8 8 8 7 7 7
27 24 25 23 19 17 18 18 18 14 11 9 11 11 12 11 12 11 12 11 10 11 12 11 10 9 9 10 12 12 10 8 7 7 6 10 9 7 6 7 8 8 8
25 23 24 23 21 19 18 19 18 16 14 10 10 10 11 12 13 12 12 11 10 10 9 8 7 7 8 9 11 13 10 8 8 7 6 10 9 8 7 6 7 8 9
24 24 25 24 23 22 19 20 19 18 17 15 13 12 10 11 12 13 12 12 11 10 10 8 7 6 7 8 10 12 9 7 8 9 9 10 8 7 6 6 8 8 8
25 23 26 26 25 24 22 20 20 19 19 17 15 14 11 11 13 13 13 13 13 12 12 11 10 9 9 8 9 10 9 8 9 10 10 10 8 8 7 8 7 8 7
22 21 24 26 25 23 21 19 19 20 20 20 19 18 17 14 15 15 15 15 14 14 14 14 13 11 11 11 10 9 9 10 9 11 12 11 9 9 9 9 10 9 9
20 19 16 26 26 26 23 20 18 18 20 21 21 20 21 20 19 18 18 18 16 16 17 17 16 16 15 16 13 14 12 14 13 13 15 14 12 11 10 10 11 11 11
19 20 16 18 28 28 28 24 19 17 17 18 21 21 21 23 22 22 23 24 22 19 18 18 18 18 16 17 17 16 16 16 15 15 16 17 16 14 12 12 12 12 11
18 17 22 19 25 27 26 24 20 20 20 22 23 21 21 22 24 24 24 28 26 22 20 19 19 19 20 20 20 19 19 18 19 18 19 20 20 18 16 15 15 15 14
19 22 19 23 24 24 24 24 25 21 19 24 28 25 23 22 25 26 27 30 29 26 25 25 23 25 25 26 27 25 22 21 21 21 21 23 23 22 20 18 18 18 16
15 23 25 22 21 26 26 25 23 24 23 20 20 28 25 24 24 26 27 28 27 27 27 28 27 29 28 29 29 27 24 24 23 23 24 25 26 26 24 21 21 21 21
9 12 11 22 26 25 23 23 23 27 30 27 25 22 25 27 27 29 30 31 31 30 29 29 32 30 28 30 30 28 27 27 26 27 28 27 29 29 27 25 24 25 25
11 11 11 9 11 17 21 22 23 23 25 29 31 30 31 29 27 27 32 34 32 31 33 32 33 35 33 31 23 25 26 27 27 30 29 30 32 33 31 30 28 27 28
8 6 6 7 5 6 9 14 17 17 24 29 27 28 28 28 28 29 30 28 32 34 34 35 33 33 33 30 14 2 2 12 28 34 33 33 35 34 35 34 32 29 29
7 5 3 1 2 0 3 6 8 8 9 11 14 17 18 21 25 27 26 25 28 27 30 34 36 36 26 26 29 13 0 6 2 14 35 38 38 37 37 37 36 34 31
6 5 4 4 4 1 2 3 3 6 8 10 11 12 13 16 19 23 27 27 27 27 29 31 32 35 34 23 24 34 25 5 4 4 10 23 37 34 37 37 38 36 34
6 5 5 4 6 7 4 4 4 5 5 8 10 12 14 14 14 17 20 24 25 24 23 24 26 30 33 28 28 19 33 26 13 6 5 4 15 34 37 35 38 37 36
6 5 5 5 6 5 5 5 4 5 5 6 6 8 9 9 8 8 11 17 20 24 23 23 23 22 24 27 26 28 25 12 19 12 6 10 9 13 30 35 35 38 37
Wind_Direction
162 159 159 155 151 149 143 139 138 136 135 130 121 112 103 98 97 104 112 109 119 110 102 103 103 104 102 99 99 97 93 89 87 82 84 91 83 90 81 90 79 98 106
158 157 159 155 151 148 143 139 135 129 121 114 113 124 110 107 108 110 118 108 114 110 105 101 101 104 106 103 102 103 99 90 85 81 81 85 88 91 87 91 94 89 91
154 157 157 154 152 148 145 140 131 125 119 126 144 147 120 119 121 121 121 120 122 115 108 105 105 106 109 112 111 107 100 95 90 86 76 74 82 99 94 87 83 93 101
155 157 155 158 154 152 147 139 133 141 139 154 155 140 125 113 124 127 126 125 125 120 113 109 111 111 113 118 117 107 98 95 106 103 81 81 70 114 103 87 85 63 95
155 157 160 163 161 155 147 143 147 148 161 163 157 140 131 116 118 129 128 128 132 126 115 112 115 114 115 123 122 112 101 108 109 111 96 83 80 96 113 100 86 70 73
157 156 160 166 164 157 153 153 156 160 162 152 148 142 138 135 133 135 139 139 136 132 125 122 122 120 122 130 129 116 100 115 122 110 91 95 91 87 90 98 88 77 83
159 162 166 170 167 160 159 160 162 155 152 146 145 145 146 147 144 142 147 144 144 141 138 135 133 131 129 137 138 131 111 122 123 118 104 124 114 100 95 103 109 83 77
158 165 168 168 164 164 161 163 160 155 155 152 149 149 155 161 159 157 156 158 158 158 152 146 144 143 142 146 151 146 124 139 144 127 114 129 120 114 106 92 97 92 85
159 161 166 167 165 166 167 171 169 166 169 160 157 157 163 169 170 171 170 170 170 168 160 155 155 157 157 159 162 157 142 148 157 145 135 143 134 127 115 103 92 93 94
163 165 165 166 169 176 178 177 175 182 179 173 165 164 170 177 174 177 174 177 179 176 169 166 165 170 171 169 170 168 155 158 170 164 161 155 148 143 129 115 109 109 106
166 170 169 171 177 184 186 182 181 187 185 187 178 174 175 176 177 182 182 184 187 186 185 179 181 185 184 179 177 178 177 181 181 185 179 169 160 151 146 136 129 123 119
170 174 178 176 181 188 188 188 191 194 194 194 192 188 190 190 186 187 188 190 193 199 202 200 204 208 204 199 191 190 196 202 207 200 188 182 174 166 161 149 146 140 135
176 178 184 185 189 192 198 200 204 206 205 203 203 202 200 203 200 196 195 197 203 212 214 219 220 220 219 210 204 204 216 234 215 210 202 199 198 177 174 161 164 157 153
182 189 193 194 194 198 200 202 207 211 212 211 212 211 210 209 206 208 209 211 217 224 228 227 227 231 230 223 221 223 234 243 229 223 220 219 219 196 184 178 177 174 169
184 187 196 205 203 201 202 202 205 214 216 218 215 214 219 218 220 222 223 224 230 233 237 237 237 237 236 231 233 227 239 242 247 236 229 223 231 226 205 192 190 189 183
206 205 193 201 210 211 206 206 208 216 215 215 215 219 222 226 229 230 232 231 232 235 241 241 241 237 236 235 237 237 243 244 249 245 236 226 230 233 227 207 200 200 197
208 204 206 198 203 211 210 211 215 219 222 223 223 225 228 229 231 236 238 231 233 237 243 242 239 241 241 239 242 241 243 238 245 247 237 229 228 231 235 218 209 206 204
217 212 211 212 207 207 208 213 218 221 228 234 234 232 230 232 233 237 243 241 238 239 241 241 242 243 244 242 241 236 243 240 243 246 244 234 228 232 233 234 216 211 209
210 221 223 222 223 222 221 222 223 223 228 226 231 232 233 233 237 236 240 244 245 243 243 241 243 242 246 243 236 237 242 241 243 245 245 238 232 232 235 235 230 218 212
205 205 211 227 229 229 233 234 237 238 237 239 237 235 234 237 237 238 244 248 245 244 246 245 241 242 244 246 240 242 241 240 239 243 246 243 239 235 233 236 230 225 218
125 128 154 173 209 230 231 235 239 241 241 244 244 247 240 241 244 246 245 248 248 245 249 249 244 244 247 249 239 241 241 241 241 241 240 243 242 239 235 232 233 231 223
103 105 112 123 148 180 211 228 240 251 255 259 258 256 254 253 254 253 257 260 256 253 248 251 248 246 251 250 217 182 279 257 249 245 239 237 241 241 238 234 231 231 231
90 73 57 8 342 40 220 223 229 236 239 249 254 261 265 267 264 263 263 263 265 264 258 253 252 250 244 244 232 213 167 229 303 246 239 237 237 236 238 236 232 230 231
95 90 77 63 45 9 355 340 291 265 259 259 261 267 268 267 269 266 263 266 267 265 263 264 266 260 250 242 233 230 239 245 208 298 250 244 239 239 238 238 235 231 230
109 89 76 75 64 50 35 5 351 336 322 304 291 281 277 272 273 275 271 265 267 268 268 269 270 265 255 243 236 238 235 239 239 220 265 264 247 238 238 240 240 235 232
108 87 70 61 41 19 19 17 359 347 339 319 316 317 313 308 290 290 278 266 262 264 269 270 273 275 266 264 247 241 235 223 231 223 238 242 244 262 243 239 238 237 234